Location: Falconara Alta
(43.6167°N, 13.4000°E)
Time: 03:33:32
(UTC+00:00)

Cosmos 2058 Rocket - Pass Details

Date: 09 April 2020
Orbit: 610 x 640 km, 82.5° (Epoch: 02 June)

Event Time Altitude Azimuth Distance (km) Brightness Sun altitude
Rises 18:51:46 0° 183° (S) 2,929 6.3 -12.6°
Reaches altitude 10° 18:54:00 10° 182° (S) 2,025 5.5 -13.0°
Maximum altitude 18:58:29 77° 97° (E) 661 3.0 -13.7°
Drops below altitude 10° 19:03:01 10° 11° (NNE) 2,036 5.9 -14.5°
Sets 19:05:16 0° 10° (N) 2,946 6.8 -14.8°
